Year,Month,Day,Hour,Minute,Value (Times are PST for temperature in C)
2015,08,04,00,00,15.00
2015,08,04,00,01,15.00
2015,08,04,00,02,15.00
2015,08,04,00,03,15.00
2015,08,04,00,04,15.00
2015,08,04,00,05,15.00
2015,08,04,00,06,15.00
2015,08,04,00,07,15.00
2015,08,04,00,08,15.00
2015,08,04,00,09,15.00
2015,08,04,00,10,15.00
2015,08,04,00,11,15.00
2015,08,04,00,12,15.00
2015,08,04,00,13,15.00
2015,08,04,00,14,15.00
2015,08,04,00,15,15.00
2015,08,04,00,16,15.00
2015,08,04,00,17,15.00
2015,08,04,00,18,14.90
2015,08,04,00,19,14.90
2015,08,04,00,20,15.00
2015,08,04,00,21,15.00
2015,08,04,00,22,15.00
2015,08,04,00,23,15.00
2015,08,04,00,24,15.00
2015,08,04,00,25,14.90
2015,08,04,00,26,14.90
2015,08,04,00,27,15.00
2015,08,04,00,28,15.00
2015,08,04,00,29,15.00
2015,08,04,00,30,14.90
2015,08,04,00,31,14.90
2015,08,04,00,32,15.00
2015,08,04,00,33,15.00
2015,08,04,00,34,15.00
2015,08,04,00,35,15.00
2015,08,04,00,36,15.00
2015,08,04,00,37,15.00
2015,08,04,00,38,15.00
2015,08,04,00,39,14.90
2015,08,04,00,40,14.90
2015,08,04,00,41,14.90
2015,08,04,00,42,14.90
2015,08,04,00,43,14.90
2015,08,04,00,44,14.90
2015,08,04,00,45,14.90
2015,08,04,00,46,14.90
2015,08,04,00,47,14.90
2015,08,04,00,48,14.90
2015,08,04,00,49,14.90
2015,08,04,00,50,14.90
2015,08,04,00,51,14.90
2015,08,04,00,52,14.90
2015,08,04,00,53,14.90
2015,08,04,00,54,14.90
2015,08,04,00,55,14.90
2015,08,04,00,56,15.00
2015,08,04,00,57,15.00
2015,08,04,00,58,15.00
2015,08,04,00,59,15.00
2015,08,04,01,00,15.00
2015,08,04,01,01,15.00
2015,08,04,01,02,15.00
2015,08,04,01,03,15.00
2015,08,04,01,04,15.00
2015,08,04,01,05,15.00
2015,08,04,01,06,15.00
2015,08,04,01,07,15.00
2015,08,04,01,08,15.00
2015,08,04,01,09,15.00
2015,08,04,01,10,15.00
2015,08,04,01,11,15.00
2015,08,04,01,12,15.00
2015,08,04,01,13,15.00
2015,08,04,01,14,15.00
2015,08,04,01,15,15.00
2015,08,04,01,16,15.00
2015,08,04,01,17,15.00
2015,08,04,01,18,15.00
2015,08,04,01,19,15.10
2015,08,04,01,20,15.10
2015,08,04,01,21,15.00
2015,08,04,01,22,15.00
2015,08,04,01,23,15.10
2015,08,04,01,24,15.10
2015,08,04,01,25,15.10
2015,08,04,01,26,15.10
2015,08,04,01,27,15.10
2015,08,04,01,28,15.10
2015,08,04,01,29,15.10
2015,08,04,01,30,15.10
2015,08,04,01,31,15.10
2015,08,04,01,32,15.10
2015,08,04,01,33,15.10
2015,08,04,01,34,15.10
2015,08,04,01,35,15.10
2015,08,04,01,36,15.10
2015,08,04,01,37,15.00
2015,08,04,01,38,15.00
2015,08,04,01,39,15.00
2015,08,04,01,40,15.00
2015,08,04,01,41,15.00
2015,08,04,01,42,15.00
2015,08,04,01,43,15.00
2015,08,04,01,44,15.00
2015,08,04,01,45,15.00
2015,08,04,01,46,15.00
2015,08,04,01,47,15.00
2015,08,04,01,48,15.00
2015,08,04,01,49,15.00
2015,08,04,01,50,15.00
2015,08,04,01,51,15.00
2015,08,04,01,52,15.00
2015,08,04,01,53,15.10
2015,08,04,01,54,15.10
2015,08,04,01,55,15.10
2015,08,04,01,56,15.00
2015,08,04,01,57,15.00
2015,08,04,01,58,15.10
2015,08,04,01,59,15.00
2015,08,04,02,00,15.00
2015,08,04,02,01,15.00
2015,08,04,02,02,15.00
2015,08,04,02,03,15.00
2015,08,04,02,04,15.00
2015,08,04,02,05,15.00
2015,08,04,02,06,15.00
2015,08,04,02,07,15.00
2015,08,04,02,08,15.00
2015,08,04,02,09,15.00
2015,08,04,02,10,15.00
2015,08,04,02,11,15.00
2015,08,04,02,12,15.00
2015,08,04,02,13,15.00
2015,08,04,02,14,15.00
2015,08,04,02,15,15.00
2015,08,04,02,16,15.00
2015,08,04,02,17,15.00
2015,08,04,02,18,15.00
2015,08,04,02,19,15.00
2015,08,04,02,20,15.00
2015,08,04,02,21,15.00
2015,08,04,02,22,15.00
2015,08,04,02,23,14.90
2015,08,04,02,24,14.90
2015,08,04,02,25,14.90
2015,08,04,02,26,15.00
2015,08,04,02,27,15.00
2015,08,04,02,28,15.00
2015,08,04,02,29,15.00
2015,08,04,02,30,15.00
2015,08,04,02,31,15.00
2015,08,04,02,32,15.00
2015,08,04,02,33,15.00
2015,08,04,02,34,15.00
2015,08,04,02,35,15.00
2015,08,04,02,36,15.00
2015,08,04,02,37,15.00
2015,08,04,02,38,15.00
2015,08,04,02,39,15.00
2015,08,04,02,40,15.00
2015,08,04,02,41,15.00
2015,08,04,02,42,15.00
2015,08,04,02,43,15.00
2015,08,04,02,44,15.00
2015,08,04,02,45,15.00
2015,08,04,02,46,15.00
2015,08,04,02,47,15.00
2015,08,04,02,48,15.00
2015,08,04,02,49,15.00
2015,08,04,02,50,15.00
2015,08,04,02,51,15.00
2015,08,04,02,52,15.00
2015,08,04,02,53,15.00
2015,08,04,02,54,15.00
2015,08,04,02,55,15.00
2015,08,04,02,56,15.10
2015,08,04,02,57,15.10
2015,08,04,02,58,15.10
2015,08,04,02,59,15.10
2015,08,04,03,00,15.10
2015,08,04,03,01,15.10
2015,08,04,03,02,15.10
2015,08,04,03,03,15.10
2015,08,04,03,04,15.10
2015,08,04,03,05,15.10
2015,08,04,03,06,15.10
2015,08,04,03,07,15.10
2015,08,04,03,08,15.00
2015,08,04,03,09,15.00
2015,08,04,03,10,15.00
2015,08,04,03,11,15.00
2015,08,04,03,12,15.00
2015,08,04,03,13,15.00
2015,08,04,03,14,15.00
2015,08,04,03,15,15.00
2015,08,04,03,16,15.00
2015,08,04,03,17,14.90
2015,08,04,03,18,14.90
2015,08,04,03,19,14.90
2015,08,04,03,20,14.90
2015,08,04,03,21,14.90
2015,08,04,03,22,14.90
2015,08,04,03,23,14.90
2015,08,04,03,24,14.90
2015,08,04,03,25,14.90
2015,08,04,03,26,14.90
2015,08,04,03,27,14.90
2015,08,04,03,28,14.90
2015,08,04,03,29,14.90
2015,08,04,03,30,14.90
2015,08,04,03,31,14.90
2015,08,04,03,32,14.90
2015,08,04,03,33,14.90
2015,08,04,03,34,14.90
2015,08,04,03,35,14.90
2015,08,04,03,36,14.90
2015,08,04,03,37,15.00
2015,08,04,03,38,14.90
2015,08,04,03,39,14.90
2015,08,04,03,40,14.90
2015,08,04,03,41,14.90
2015,08,04,03,42,14.90
2015,08,04,03,43,14.90
2015,08,04,03,44,14.90
2015,08,04,03,45,14.90
2015,08,04,03,46,14.90
2015,08,04,03,47,14.90
2015,08,04,03,48,14.90
2015,08,04,03,49,14.90
2015,08,04,03,50,14.90
2015,08,04,03,51,14.90
2015,08,04,03,52,14.90
2015,08,04,03,53,14.90
2015,08,04,03,54,14.80
2015,08,04,03,55,14.80
2015,08,04,03,56,14.80
2015,08,04,03,57,14.70
2015,08,04,03,58,14.60
2015,08,04,03,59,14.50
2015,08,04,04,00,14.50
2015,08,04,04,01,14.40
2015,08,04,04,02,14.30
2015,08,04,04,03,14.20
2015,08,04,04,04,14.20
2015,08,04,04,05,14.20
2015,08,04,04,06,14.30
2015,08,04,04,07,14.30
2015,08,04,04,08,14.30
2015,08,04,04,09,14.20
2015,08,04,04,10,14.10
2015,08,04,04,11,14.00
2015,08,04,04,12,13.90
2015,08,04,04,13,13.90
2015,08,04,04,14,13.80
2015,08,04,04,15,13.70
2015,08,04,04,16,13.70
2015,08,04,04,17,13.70
2015,08,04,04,18,13.70
2015,08,04,04,19,13.60
2015,08,04,04,20,13.60
2015,08,04,04,21,13.60
2015,08,04,04,22,13.60
2015,08,04,04,23,13.50
2015,08,04,04,24,13.50
2015,08,04,04,25,13.50
2015,08,04,04,26,13.50
2015,08,04,04,27,13.40
2015,08,04,04,28,13.40
2015,08,04,04,29,13.40
2015,08,04,04,30,13.40
2015,08,04,04,31,13.40
2015,08,04,04,32,13.30
2015,08,04,04,33,13.30
2015,08,04,04,34,13.30
2015,08,04,04,35,13.30
2015,08,04,04,36,13.30
2015,08,04,04,37,13.30
2015,08,04,04,38,13.30
2015,08,04,04,39,13.30
2015,08,04,04,40,13.30
2015,08,04,04,41,13.30
2015,08,04,04,42,13.30
2015,08,04,04,43,13.30
2015,08,04,04,44,13.30
2015,08,04,04,45,13.30
2015,08,04,04,46,13.30
2015,08,04,04,47,13.20
2015,08,04,04,48,13.20
2015,08,04,04,49,13.20
2015,08,04,04,50,13.20
2015,08,04,04,51,13.20
2015,08,04,04,52,13.20
2015,08,04,04,53,13.10
2015,08,04,04,54,13.10
2015,08,04,04,55,13.10
2015,08,04,04,56,13.10
2015,08,04,04,57,13.00
2015,08,04,04,58,13.00
2015,08,04,04,59,13.00
2015,08,04,05,00,13.00
2015,08,04,05,01,13.00
2015,08,04,05,02,13.00
2015,08,04,05,03,13.00
2015,08,04,05,04,13.00
2015,08,04,05,05,12.90
2015,08,04,05,06,12.90
2015,08,04,05,07,12.90
2015,08,04,05,08,12.90
2015,08,04,05,09,12.80
2015,08,04,05,10,12.80
2015,08,04,05,11,12.80
2015,08,04,05,12,12.80
2015,08,04,05,13,12.80
2015,08,04,05,14,12.80
2015,08,04,05,15,12.80
2015,08,04,05,16,12.80
2015,08,04,05,17,12.90
2015,08,04,05,18,12.90
2015,08,04,05,19,12.90
2015,08,04,05,20,12.90
2015,08,04,05,21,12.90
2015,08,04,05,22,12.90
2015,08,04,05,23,12.90
2015,08,04,05,24,12.80
2015,08,04,05,25,12.80
2015,08,04,05,26,12.80
2015,08,04,05,27,12.80
2015,08,04,05,28,12.80
2015,08,04,05,29,12.70
2015,08,04,05,30,12.70
2015,08,04,05,31,12.60
2015,08,04,05,32,12.60
2015,08,04,05,33,12.60
2015,08,04,05,34,12.60
2015,08,04,05,35,12.60
2015,08,04,05,36,12.50
2015,08,04,05,37,12.50
2015,08,04,05,38,12.50
2015,08,04,05,39,12.50
2015,08,04,05,40,12.50
2015,08,04,05,41,12.50
2015,08,04,05,42,12.40
2015,08,04,05,43,12.40
2015,08,04,05,44,12.40
2015,08,04,05,45,12.40
2015,08,04,05,46,12.40
2015,08,04,05,47,12.40
2015,08,04,05,48,12.50
2015,08,04,05,49,12.50
2015,08,04,05,50,12.50
2015,08,04,05,51,12.50
2015,08,04,05,52,12.50
2015,08,04,05,53,12.50
2015,08,04,05,54,12.50
2015,08,04,05,55,12.50
2015,08,04,05,56,12.50
2015,08,04,05,57,12.50
2015,08,04,05,58,12.50
2015,08,04,05,59,12.50
2015,08,04,06,00,12.50
2015,08,04,06,01,12.50
2015,08,04,06,02,12.50
2015,08,04,06,03,12.50
2015,08,04,06,04,12.50
2015,08,04,06,05,12.50
2015,08,04,06,06,12.50
2015,08,04,06,07,12.50
2015,08,04,06,08,12.50
2015,08,04,06,09,12.50
2015,08,04,06,10,12.50
2015,08,04,06,11,12.50
2015,08,04,06,12,12.50
2015,08,04,06,13,12.50
2015,08,04,06,14,12.50
2015,08,04,06,15,12.60
2015,08,04,06,16,12.60
2015,08,04,06,17,12.60
2015,08,04,06,18,12.60
2015,08,04,06,19,12.60
2015,08,04,06,20,12.60
2015,08,04,06,21,12.60
2015,08,04,06,22,12.60
2015,08,04,06,23,12.60
2015,08,04,06,24,12.60
2015,08,04,06,25,12.60
2015,08,04,06,26,12.60
2015,08,04,06,27,12.60
2015,08,04,06,28,12.60
2015,08,04,06,29,12.70
2015,08,04,06,30,12.70
2015,08,04,06,31,12.70
2015,08,04,06,32,12.80
2015,08,04,06,33,12.80
2015,08,04,06,34,12.80
2015,08,04,06,35,12.90
2015,08,04,06,36,13.00
2015,08,04,06,37,13.10
2015,08,04,06,38,13.20
2015,08,04,06,39,13.30
2015,08,04,06,40,13.30
2015,08,04,06,41,13.30
2015,08,04,06,42,13.30
2015,08,04,06,43,13.40
2015,08,04,06,44,13.40
2015,08,04,06,45,13.40
2015,08,04,06,46,13.30
2015,08,04,06,47,13.30
2015,08,04,06,48,13.40
2015,08,04,06,49,13.40
2015,08,04,06,50,13.40
2015,08,04,06,51,13.50
2015,08,04,06,52,13.50
2015,08,04,06,53,13.60
2015,08,04,06,54,13.70
2015,08,04,06,55,13.80
2015,08,04,06,56,13.80
2015,08,04,06,57,13.90
2015,08,04,06,58,14.00
2015,08,04,06,59,14.00
2015,08,04,07,00,14.00
2015,08,04,07,01,14.10
2015,08,04,07,02,14.10
2015,08,04,07,03,14.10
2015,08,04,07,04,14.10
2015,08,04,07,05,14.20
2015,08,04,07,06,14.20
2015,08,04,07,07,14.20
2015,08,04,07,08,14.20
2015,08,04,07,09,14.30
2015,08,04,07,10,14.30
2015,08,04,07,11,14.40
2015,08,04,07,12,14.40
2015,08,04,07,13,14.50
2015,08,04,07,14,14.60
2015,08,04,07,15,14.60
2015,08,04,07,16,14.70
2015,08,04,07,17,14.80
2015,08,04,07,18,14.80
2015,08,04,07,19,14.80
2015,08,04,07,20,14.90
2015,08,04,07,21,14.90
2015,08,04,07,22,15.00
2015,08,04,07,23,15.00
2015,08,04,07,24,15.10
2015,08,04,07,25,15.10
2015,08,04,07,26,15.20
2015,08,04,07,27,15.20
2015,08,04,07,28,15.30
2015,08,04,07,29,15.30
2015,08,04,07,30,15.20
2015,08,04,07,31,15.30
2015,08,04,07,32,15.30
2015,08,04,07,33,15.30
2015,08,04,07,34,15.30
2015,08,04,07,35,15.30
2015,08,04,07,36,15.30
2015,08,04,07,37,15.30
2015,08,04,07,38,15.40
2015,08,04,07,39,15.40
2015,08,04,07,40,15.40
2015,08,04,07,41,15.50
2015,08,04,07,42,15.50
2015,08,04,07,43,15.60
2015,08,04,07,44,15.60
2015,08,04,07,45,15.60
2015,08,04,07,46,15.70
2015,08,04,07,47,15.70
2015,08,04,07,48,15.70
2015,08,04,07,49,15.80
2015,08,04,07,50,15.80
2015,08,04,07,51,15.80
2015,08,04,07,52,15.80
2015,08,04,07,53,15.90
2015,08,04,07,54,15.90
2015,08,04,07,55,15.90
2015,08,04,07,56,16.00
2015,08,04,07,57,16.10
2015,08,04,07,58,16.10
2015,08,04,07,59,16.20
2015,08,04,08,00,16.30
2015,08,04,08,01,16.40
2015,08,04,08,02,16.40
2015,08,04,08,03,16.40
2015,08,04,08,04,16.50
2015,08,04,08,05,16.60
2015,08,04,08,06,16.70
2015,08,04,08,07,16.70
2015,08,04,08,08,16.70
2015,08,04,08,09,16.70
2015,08,04,08,10,16.70
2015,08,04,08,11,16.70
2015,08,04,08,12,16.70
2015,08,04,08,13,16.60
2015,08,04,08,14,16.50
2015,08,04,08,15,16.40
2015,08,04,08,16,16.40
2015,08,04,08,17,16.40
2015,08,04,08,18,16.30
2015,08,04,08,19,16.30
2015,08,04,08,20,16.20
2015,08,04,08,21,16.20
2015,08,04,08,22,16.20
2015,08,04,08,23,16.30
2015,08,04,08,24,16.30
2015,08,04,08,25,16.30
2015,08,04,08,26,16.30
2015,08,04,08,27,16.30
2015,08,04,08,28,16.40
2015,08,04,08,29,16.40
2015,08,04,08,30,16.40
2015,08,04,08,31,16.40
2015,08,04,08,32,16.40
2015,08,04,08,33,16.40
2015,08,04,08,34,16.40
2015,08,04,08,35,16.40
2015,08,04,08,36,16.40
2015,08,04,08,37,16.40
2015,08,04,08,38,16.40
2015,08,04,08,39,16.40
2015,08,04,08,40,16.30
2015,08,04,08,41,16.20
2015,08,04,08,42,16.20
2015,08,04,08,43,16.30
2015,08,04,08,44,16.30
2015,08,04,08,45,16.30
2015,08,04,08,46,16.30
2015,08,04,08,47,16.40
2015,08,04,08,48,16.40
2015,08,04,08,49,16.40
2015,08,04,08,50,16.40
2015,08,04,08,51,16.40
2015,08,04,08,52,16.40
2015,08,04,08,53,16.40
2015,08,04,08,54,16.40
2015,08,04,08,55,16.30
2015,08,04,08,56,16.30
2015,08,04,08,57,16.40
2015,08,04,08,58,16.40
2015,08,04,08,59,16.40
2015,08,04,09,00,16.30
2015,08,04,09,01,16.30
2015,08,04,09,02,16.30
2015,08,04,09,03,16.40
2015,08,04,09,04,16.40
2015,08,04,09,05,16.40
2015,08,04,09,06,16.40
2015,08,04,09,07,16.40
2015,08,04,09,08,16.40
2015,08,04,09,09,16.40
2015,08,04,09,10,16.60
2015,08,04,09,11,16.50
2015,08,04,09,12,16.40
2015,08,04,09,13,16.40
2015,08,04,09,14,16.40
2015,08,04,09,15,16.40
2015,08,04,09,16,16.40
2015,08,04,09,17,16.40
2015,08,04,09,18,16.40
2015,08,04,09,19,16.40
2015,08,04,09,20,16.40
2015,08,04,09,21,16.60
2015,08,04,09,22,16.60
2015,08,04,09,23,16.60
2015,08,04,09,24,16.60
2015,08,04,09,25,16.60
2015,08,04,09,26,16.60
2015,08,04,09,27,16.60
2015,08,04,09,28,16.60
2015,08,04,09,29,16.60
2015,08,04,09,30,16.60
2015,08,04,09,31,16.70
2015,08,04,09,32,16.70
2015,08,04,09,33,16.70
2015,08,04,09,34,16.70
2015,08,04,09,35,16.80
2015,08,04,09,36,16.90
2015,08,04,09,37,16.90
2015,08,04,09,38,16.90
2015,08,04,09,39,16.90
2015,08,04,09,40,16.80
2015,08,04,09,41,16.80
2015,08,04,09,42,16.70
2015,08,04,09,43,16.70
2015,08,04,09,44,16.80
2015,08,04,09,45,16.80
2015,08,04,09,46,16.80
2015,08,04,09,47,16.90
2015,08,04,09,48,16.90
2015,08,04,09,49,16.90
2015,08,04,09,50,17.00
2015,08,04,09,51,17.00
2015,08,04,09,52,17.10
2015,08,04,09,53,17.20
2015,08,04,09,54,17.30
2015,08,04,09,55,17.30
2015,08,04,09,56,17.40
2015,08,04,09,57,17.50
2015,08,04,09,58,17.60
2015,08,04,09,59,17.70
2015,08,04,10,00,17.70
2015,08,04,10,01,17.80
2015,08,04,10,02,17.80
2015,08,04,10,03,17.80
2015,08,04,10,04,17.80
2015,08,04,10,05,17.90
2015,08,04,10,06,17.90
2015,08,04,10,07,17.90
2015,08,04,10,08,17.90
2015,08,04,10,09,17.90
2015,08,04,10,10,17.90
2015,08,04,10,11,18.00
2015,08,04,10,12,18.10
2015,08,04,10,13,18.20
2015,08,04,10,14,18.20
2015,08,04,10,15,18.20
2015,08,04,10,16,18.20
2015,08,04,10,17,18.20
2015,08,04,10,18,18.20
2015,08,04,10,19,18.10
2015,08,04,10,20,18.10
2015,08,04,10,21,18.10
2015,08,04,10,22,18.10
2015,08,04,10,23,18.00
2015,08,04,10,24,17.90
2015,08,04,10,25,17.90
2015,08,04,10,26,17.90
2015,08,04,10,27,18.00
2015,08,04,10,28,18.10
2015,08,04,10,29,18.00
2015,08,04,10,30,17.90
2015,08,04,10,31,17.90
2015,08,04,10,32,18.10
2015,08,04,10,33,18.10
2015,08,04,10,34,18.10
2015,08,04,10,35,17.90
2015,08,04,10,36,18.00
2015,08,04,10,37,18.10
2015,08,04,10,38,18.10
2015,08,04,10,39,18.20
2015,08,04,10,40,18.20
2015,08,04,10,41,18.20
2015,08,04,10,42,18.20
2015,08,04,10,43,18.20
2015,08,04,10,44,18.20
2015,08,04,10,45,18.20
2015,08,04,10,46,18.20
2015,08,04,10,47,18.20
2015,08,04,10,48,18.20
2015,08,04,10,49,18.30
2015,08,04,10,50,18.40
2015,08,04,10,51,18.50
2015,08,04,10,52,18.50
2015,08,04,10,53,18.50
2015,08,04,10,54,18.40
2015,08,04,10,55,18.40
2015,08,04,10,56,18.30
2015,08,04,10,57,18.20
2015,08,04,10,58,18.20
2015,08,04,10,59,18.20
2015,08,04,11,00,18.20
2015,08,04,11,01,18.20
2015,08,04,11,02,18.20
2015,08,04,11,03,18.20
2015,08,04,11,04,18.20
2015,08,04,11,05,18.20
2015,08,04,11,06,18.20
2015,08,04,11,07,18.20
2015,08,04,11,08,18.20
2015,08,04,11,09,18.10
2015,08,04,11,10,18.10
2015,08,04,11,11,18.10
2015,08,04,11,12,18.20
2015,08,04,11,13,18.20
2015,08,04,11,14,18.20
2015,08,04,11,15,18.20
2015,08,04,11,16,18.20
2015,08,04,11,17,18.20
2015,08,04,11,18,18.30
2015,08,04,11,19,18.30
2015,08,04,11,20,18.30
2015,08,04,11,21,18.30
2015,08,04,11,22,18.30
2015,08,04,11,23,18.40
2015,08,04,11,24,18.40
2015,08,04,11,25,18.40
2015,08,04,11,26,18.40
2015,08,04,11,27,18.30
2015,08,04,11,28,18.30
2015,08,04,11,29,18.30
2015,08,04,11,30,18.40
2015,08,04,11,31,18.40
2015,08,04,11,32,18.40
2015,08,04,11,33,18.50
2015,08,04,11,34,18.50
2015,08,04,11,35,18.50
2015,08,04,11,36,18.60
2015,08,04,11,37,18.60
2015,08,04,11,38,18.60
2015,08,04,11,39,18.60
2015,08,04,11,40,18.60
2015,08,04,11,41,18.70
2015,08,04,11,42,18.80
2015,08,04,11,43,18.90
2015,08,04,11,44,18.90
2015,08,04,11,45,18.90
2015,08,04,11,46,18.90
2015,08,04,11,47,18.90
2015,08,04,11,48,18.90
2015,08,04,11,49,18.90
2015,08,04,11,50,18.80
2015,08,04,11,51,18.70
2015,08,04,11,52,18.70
2015,08,04,11,53,18.80
2015,08,04,11,54,18.80
2015,08,04,11,55,18.90
2015,08,04,11,56,19.00
2015,08,04,11,57,19.10
2015,08,04,11,58,19.10
2015,08,04,11,59,19.10
2015,08,04,12,00,19.10
2015,08,04,12,01,19.10
2015,08,04,12,02,19.10
2015,08,04,12,03,19.10
2015,08,04,12,04,19.10
2015,08,04,12,05,19.10
2015,08,04,12,06,19.10
2015,08,04,12,07,19.10
2015,08,04,12,08,19.00
2015,08,04,12,09,18.90
2015,08,04,12,10,18.80
2015,08,04,12,11,18.70
2015,08,04,12,12,18.50
2015,08,04,12,13,18.40
2015,08,04,12,14,18.30
2015,08,04,12,15,18.30
2015,08,04,12,16,18.30
2015,08,04,12,17,18.30
2015,08,04,12,18,18.20
2015,08,04,12,19,18.10
2015,08,04,12,20,18.10
2015,08,04,12,21,18.00
2015,08,04,12,22,17.90
2015,08,04,12,23,17.90
2015,08,04,12,24,17.70
2015,08,04,12,25,17.70
2015,08,04,12,26,17.70
2015,08,04,12,27,17.50
2015,08,04,12,28,17.30
2015,08,04,12,29,17.30
2015,08,04,12,30,17.10
2015,08,04,12,31,17.20
2015,08,04,12,32,17.10
2015,08,04,12,33,17.00
2015,08,04,12,34,17.00
2015,08,04,12,35,17.00
2015,08,04,12,36,17.00
2015,08,04,12,37,16.90
2015,08,04,12,38,16.90
2015,08,04,12,39,16.80
2015,08,04,12,40,16.90
2015,08,04,12,41,17.00
2015,08,04,12,42,16.90
2015,08,04,12,43,16.80
2015,08,04,12,44,16.70
2015,08,04,12,45,16.70
2015,08,04,12,46,16.70
2015,08,04,12,47,16.70
2015,08,04,12,48,16.70
2015,08,04,12,49,16.70
2015,08,04,12,50,16.70
2015,08,04,12,51,16.60
2015,08,04,12,52,16.60
2015,08,04,12,53,16.50
2015,08,04,12,54,16.40
2015,08,04,12,55,16.40
2015,08,04,12,56,16.40
2015,08,04,12,57,16.40
2015,08,04,12,58,16.40
2015,08,04,12,59,16.50
2015,08,04,13,00,16.60
2015,08,04,13,01,16.70
2015,08,04,13,02,16.80
2015,08,04,13,03,16.80
2015,08,04,13,04,16.70
2015,08,04,13,05,16.70
2015,08,04,13,06,16.70
2015,08,04,13,07,16.70
2015,08,04,13,08,16.50
2015,08,04,13,09,16.40
2015,08,04,13,10,16.30
2015,08,04,13,11,16.20
2015,08,04,13,12,16.30
2015,08,04,13,13,16.30
2015,08,04,13,14,16.40
2015,08,04,13,15,16.40
2015,08,04,13,16,16.30
2015,08,04,13,17,16.30
2015,08,04,13,18,16.20
2015,08,04,13,19,16.30
2015,08,04,13,20,16.20
2015,08,04,13,21,16.20
2015,08,04,13,22,16.30
2015,08,04,13,23,16.20
2015,08,04,13,24,16.20
2015,08,04,13,25,16.20
2015,08,04,13,26,16.20
2015,08,04,13,27,16.20
2015,08,04,13,28,16.20
2015,08,04,13,29,16.20
2015,08,04,13,30,16.10
2015,08,04,13,31,16.10
2015,08,04,13,32,16.10
2015,08,04,13,33,16.00
2015,08,04,13,34,15.90
2015,08,04,13,35,15.90
2015,08,04,13,36,15.90
2015,08,04,13,37,16.10
2015,08,04,13,38,16.10
2015,08,04,13,39,16.10
2015,08,04,13,40,16.10
2015,08,04,13,41,16.20
2015,08,04,13,42,16.20
2015,08,04,13,43,16.10
2015,08,04,13,44,16.10
2015,08,04,13,45,16.10
2015,08,04,13,46,16.30
2015,08,04,13,47,16.40
2015,08,04,13,48,16.40
2015,08,04,13,49,16.40
2015,08,04,13,50,16.30
2015,08,04,13,51,16.30
2015,08,04,13,52,16.20
2015,08,04,13,53,16.10
2015,08,04,13,54,16.10
2015,08,04,13,55,16.20
2015,08,04,13,56,16.30
2015,08,04,13,57,16.30
2015,08,04,13,58,16.30
2015,08,04,13,59,16.40
2015,08,04,14,00,16.60
2015,08,04,14,01,16.70
2015,08,04,14,02,16.70
2015,08,04,14,03,16.80
2015,08,04,14,04,16.80
2015,08,04,14,05,16.80
2015,08,04,14,06,16.80
2015,08,04,14,07,16.90
2015,08,04,14,08,16.80
2015,08,04,14,09,16.90
2015,08,04,14,10,16.80
2015,08,04,14,11,16.80
2015,08,04,14,12,16.80
2015,08,04,14,13,16.90
2015,08,04,14,14,17.00
2015,08,04,14,15,17.10
2015,08,04,14,16,17.20
2015,08,04,14,17,17.30
2015,08,04,14,18,17.30
2015,08,04,14,19,17.40
2015,08,04,14,20,17.50
2015,08,04,14,21,17.60
2015,08,04,14,22,17.60
2015,08,04,14,23,17.70
2015,08,04,14,24,17.80
2015,08,04,14,25,17.80
2015,08,04,14,26,17.80
2015,08,04,14,27,17.80
2015,08,04,14,28,17.80
2015,08,04,14,29,17.90
2015,08,04,14,30,18.00
2015,08,04,14,31,18.10
2015,08,04,14,32,18.20
2015,08,04,14,33,18.40
2015,08,04,14,34,18.50
2015,08,04,14,35,18.40
2015,08,04,14,36,18.30
2015,08,04,14,37,18.40
2015,08,04,14,38,18.50
2015,08,04,14,39,18.80
2015,08,04,14,40,19.10
2015,08,04,14,41,19.40
2015,08,04,14,42,19.70
2015,08,04,14,43,19.90
2015,08,04,14,44,20.10
2015,08,04,14,45,20.30
2015,08,04,14,46,20.50
2015,08,04,14,47,20.60
2015,08,04,14,48,20.70
2015,08,04,14,49,20.90
2015,08,04,14,50,21.00
2015,08,04,14,51,21.10
2015,08,04,14,52,21.10
2015,08,04,14,53,21.20
2015,08,04,14,54,21.20
2015,08,04,14,55,21.20
2015,08,04,14,56,21.20
2015,08,04,14,57,21.20
2015,08,04,14,58,21.30
2015,08,04,14,59,21.40
2015,08,04,15,00,21.30
2015,08,04,15,01,21.30
2015,08,04,15,02,21.30
2015,08,04,15,03,21.30
2015,08,04,15,04,21.30
2015,08,04,15,05,21.30
2015,08,04,15,06,21.30
2015,08,04,15,07,21.40
2015,08,04,15,08,21.40
2015,08,04,15,09,21.30
2015,08,04,15,10,21.40
2015,08,04,15,11,21.40
2015,08,04,15,12,21.40
2015,08,04,15,13,21.40
2015,08,04,15,14,21.40
2015,08,04,15,15,21.50
2015,08,04,15,16,21.60
2015,08,04,15,17,21.60
2015,08,04,15,18,21.50
2015,08,04,15,19,21.40
2015,08,04,15,20,21.20
2015,08,04,15,21,21.10
2015,08,04,15,22,21.10
2015,08,04,15,23,21.10
2015,08,04,15,24,21.10
2015,08,04,15,25,21.10
2015,08,04,15,26,21.20
2015,08,04,15,27,21.20
2015,08,04,15,28,21.30
2015,08,04,15,29,21.30
2015,08,04,15,30,21.20
2015,08,04,15,31,21.20
2015,08,04,15,32,21.10
2015,08,04,15,33,21.10
2015,08,04,15,34,21.00
2015,08,04,15,35,21.00
2015,08,04,15,36,21.00
2015,08,04,15,37,21.00
2015,08,04,15,38,21.10
2015,08,04,15,39,21.00
2015,08,04,15,40,21.00
2015,08,04,15,41,20.90
2015,08,04,15,42,20.80
2015,08,04,15,43,20.80
2015,08,04,15,44,20.80
2015,08,04,15,45,20.70
2015,08,04,15,46,20.70
2015,08,04,15,47,20.70
2015,08,04,15,48,20.80
2015,08,04,15,49,20.70
2015,08,04,15,50,20.70
2015,08,04,15,51,20.60
2015,08,04,15,52,20.50
2015,08,04,15,53,20.50
2015,08,04,15,54,20.60
2015,08,04,15,55,20.70
2015,08,04,15,56,20.80
2015,08,04,15,57,20.80
2015,08,04,15,58,20.70
2015,08,04,15,59,20.70
2015,08,04,16,00,20.70
2015,08,04,16,01,20.70
2015,08,04,16,02,20.70
2015,08,04,16,03,20.70
2015,08,04,16,04,20.60
2015,08,04,16,05,20.60
2015,08,04,16,06,20.50
2015,08,04,16,07,20.50
2015,08,04,16,08,20.40
2015,08,04,16,09,20.40
2015,08,04,16,10,20.30
2015,08,04,16,11,20.30
2015,08,04,16,12,20.30
2015,08,04,16,13,20.30
2015,08,04,16,14,20.20
2015,08,04,16,15,20.20
2015,08,04,16,16,20.20
2015,08,04,16,17,20.20
2015,08,04,16,18,20.20
2015,08,04,16,19,20.20
2015,08,04,16,20,20.30
2015,08,04,16,21,20.40
2015,08,04,16,22,20.40
2015,08,04,16,23,20.40
2015,08,04,16,24,20.40
2015,08,04,16,25,20.40
2015,08,04,16,26,20.30
2015,08,04,16,27,20.30
2015,08,04,16,28,20.30
2015,08,04,16,29,20.20
2015,08,04,16,30,20.20
2015,08,04,16,31,20.30
2015,08,04,16,32,20.30
2015,08,04,16,33,20.30
2015,08,04,16,34,20.30
2015,08,04,16,35,20.30
2015,08,04,16,36,20.30
2015,08,04,16,37,20.20
2015,08,04,16,38,20.20
2015,08,04,16,39,20.20
2015,08,04,16,40,20.20
2015,08,04,16,41,20.20
2015,08,04,16,42,20.20
2015,08,04,16,43,20.20
2015,08,04,16,44,20.20
2015,08,04,16,45,20.20
2015,08,04,16,46,20.10
2015,08,04,16,47,20.10
2015,08,04,16,48,19.90
2015,08,04,16,49,20.00
2015,08,04,16,50,19.90
2015,08,04,16,51,19.90
2015,08,04,16,52,19.90
2015,08,04,16,53,19.90
2015,08,04,16,54,19.90
2015,08,04,16,55,19.90
2015,08,04,16,56,19.80
2015,08,04,16,57,19.70
2015,08,04,16,58,19.70
2015,08,04,16,59,19.70
2015,08,04,17,00,19.60
2015,08,04,17,01,19.60
2015,08,04,17,02,19.50
2015,08,04,17,03,19.40
2015,08,04,17,04,19.30
2015,08,04,17,05,19.30
2015,08,04,17,06,19.30
2015,08,04,17,07,19.30
2015,08,04,17,08,19.20
2015,08,04,17,09,19.10
2015,08,04,17,10,19.10
2015,08,04,17,11,19.00
2015,08,04,17,12,18.90
2015,08,04,17,13,19.00
2015,08,04,17,14,19.10
2015,08,04,17,15,19.10
2015,08,04,17,16,19.00
2015,08,04,17,17,18.90
2015,08,04,17,18,19.00
2015,08,04,17,19,19.10